PAL316 RPLL-RPVP

Flight info

Callsign PAL316
Flight time 0h 58m
Altitude 31000
Route BUCAL2R BUCAL M646 NOMYO NOMYO2W
Aircraft A333/H-SDE3GHIJ2J3J5M1RVWXY/LB2D1

Departure

Time 2026-04-25 07:28
Airport Ninoy Aquino International Airport (RPLL)

Arrival

Time 2026-04-25 08:27
Airport Puerto Princesa International Airport / PAF Antonio Bautista Air Base (RPVP)
Time Latitude Longitude Altitude Speed Heading
2026-04-25 06:51 14.51076 121.01370 62 ft 0 kts 220°
2026-04-25 07:15 14.51080 121.01373 100 ft 4 kts 220°
2026-04-25 07:15 14.51101 121.01391 69 ft 4 kts 215°
2026-04-25 07:16 14.51124 121.01405 62 ft 4 kts 193°
2026-04-25 07:16 14.51144 121.01404 62 ft 2 kts 134°
2026-04-25 07:16 14.51145 121.01403 62 ft 0 kts 133°
2026-04-25 07:22 14.51130 121.01419 62 ft 7 kts 133°
2026-04-25 07:22 14.51078 121.01476 62 ft 13 kts 134°
2026-04-25 07:22 14.51010 121.01545 62 ft 15 kts 135°
2026-04-25 07:23 14.50941 121.01618 64 ft 16 kts 134°
2026-04-25 07:23 14.50863 121.01650 62 ft 6 kts 205°
2026-04-25 07:23 14.50823 121.01596 64 ft 15 kts 241°
2026-04-25 07:23 14.50767 121.01494 62 ft 18 kts 240°
2026-04-25 07:24 14.50701 121.01378 64 ft 20 kts 240°
2026-04-25 07:24 14.50629 121.01248 63 ft 22 kts 240°
2026-04-25 07:24 14.50550 121.01107 66 ft 24 kts 240°
2026-04-25 07:24 14.50463 121.00951 66 ft 26 kts 240°
2026-04-25 07:25 14.50369 121.00782 61 ft 28 kts 241°
2026-04-25 07:25 14.50271 121.00605 61 ft 28 kts 240°
2026-04-25 07:25 14.50170 121.00425 65 ft 30 kts 240°
2026-04-25 07:25 14.50066 121.00237 62 ft 31 kts 240°
2026-04-25 07:26 14.49957 121.00043 62 ft 31 kts 240°
2026-04-25 07:26 14.49890 120.99967 64 ft 11 kts 183°
2026-04-25 07:26 14.49821 121.00001 67 ft 12 kts 141°
2026-04-25 07:26 14.49819 121.00070 69 ft 11 kts 60°
2026-04-25 07:27 14.49858 121.00137 62 ft 1 kts 61°
2026-04-25 07:27 14.49875 121.00167 64 ft 19 kts 60°
2026-04-25 07:27 14.50079 121.00536 60 ft 97 kts 59°
2026-04-25 07:27 14.50520 121.01332 66 ft 157 kts 59°
2026-04-25 07:28 14.51144 121.02408 574 ft 180 kts 58°
2026-04-25 07:28 14.51825 121.03507 1571 ft 180 kts 59°
2026-04-25 07:28 14.52552 121.04602 2361 ft 196 kts 59°
2026-04-25 07:28 14.53369 121.05842 2901 ft 222 kts 58°
2026-04-25 07:29 14.54258 121.07260 3329 ft 246 kts 60°
2026-04-25 07:29 14.55210 121.08792 3797 ft 261 kts 59°
2026-04-25 07:29 14.56192 121.10402 4632 ft 264 kts 60°
2026-04-25 07:29 14.56767 121.12180 5496 ft 265 kts 89°
2026-04-25 07:30 14.56396 121.14029 6295 ft 273 kts 112°
2026-04-25 07:30 14.55744 121.15182 6818 ft 278 kts 126°
2026-04-25 07:30 14.53937 121.17117 7870 ft 287 kts 136°
2026-04-25 07:30 14.52920 121.18048 8414 ft 292 kts 139°
2026-04-25 07:31 14.51335 121.19403 9256 ft 298 kts 140°
2026-04-25 07:31 14.49752 121.20813 10069 ft 304 kts 136°
2026-04-25 07:31 14.48159 121.22305 10655 ft 319 kts 143°
2026-04-25 07:31 14.45440 121.23688 11185 ft 340 kts 170°
2026-04-25 07:32 14.44702 121.23795 11390 ft 341 kts 178°
2026-04-25 07:32 14.43780 121.23776 11649 ft 343 kts 188°
2026-04-25 07:32 14.41533 121.22986 12402 ft 344 kts 212°
2026-04-25 07:32 14.39589 121.21551 13246 ft 345 kts 219°
2026-04-25 07:33 14.37712 121.20001 14079 ft 346 kts 219°
2026-04-25 07:33 14.35815 121.18434 14725 ft 351 kts 219°
2026-04-25 07:33 14.33260 121.16355 15620 ft 356 kts 219°
2026-04-25 07:33 14.31291 121.14772 16249 ft 361 kts 219°
2026-04-25 07:34 14.29948 121.13695 16697 ft 364 kts 219°
2026-04-25 07:34 14.27928 121.12081 17260 ft 371 kts 219°
2026-04-25 07:34 14.25914 121.10477 17994 ft 372 kts 218°
2026-04-25 07:34 14.23854 121.08838 18587 ft 374 kts 219°
2026-04-25 07:35 14.22466 121.07734 19062 ft 373 kts 219°
2026-04-25 07:35 14.20431 121.06114 19583 ft 378 kts 219°
2026-04-25 07:35 14.18348 121.04458 20154 ft 380 kts 218°
2026-04-25 07:35 14.15544 121.02231 20888 ft 383 kts 218°
2026-04-25 07:36 14.12732 120.99997 21678 ft 386 kts 218°
2026-04-25 07:36 14.10610 120.98311 22311 ft 387 kts 218°
2026-04-25 07:36 14.08450 120.96596 22669 ft 396 kts 218°
2026-04-25 07:36 14.06256 120.94855 23150 ft 400 kts 218°
2026-04-25 07:37 14.04060 120.93112 23698 ft 401 kts 218°
2026-04-25 07:37 14.01834 120.91346 24123 ft 404 kts 218°
2026-04-25 07:37 13.99601 120.89575 24545 ft 407 kts 218°
2026-04-25 07:37 13.97388 120.87821 24974 ft 410 kts 218°
2026-04-25 07:38 13.95116 120.86019 25404 ft 412 kts 218°
2026-04-25 07:38 13.92838 120.84213 25827 ft 415 kts 219°
2026-04-25 07:38 13.90539 120.82392 26252 ft 418 kts 219°
2026-04-25 07:38 13.88234 120.80566 26656 ft 421 kts 219°
2026-04-25 07:39 13.85905 120.78721 27062 ft 423 kts 219°
2026-04-25 07:39 13.83566 120.76869 27469 ft 426 kts 219°
2026-04-25 07:39 13.81205 120.75000 27835 ft 430 kts 219°
2026-04-25 07:39 13.78833 120.73123 28225 ft 432 kts 219°
2026-04-25 07:40 13.76435 120.71226 28640 ft 435 kts 219°
2026-04-25 07:40 13.74066 120.69353 29019 ft 438 kts 219°
2026-04-25 07:40 13.71642 120.67436 29403 ft 440 kts 219°
2026-04-25 07:40 13.69208 120.65512 29783 ft 443 kts 219°
2026-04-25 07:41 13.66764 120.63580 30127 ft 445 kts 219°
2026-04-25 07:41 13.64303 120.61636 30475 ft 447 kts 219°
2026-04-25 07:41 13.61840 120.59695 30764 ft 448 kts 219°
2026-04-25 07:41 13.59252 120.57941 30855 ft 437 kts 211°
2026-04-25 07:42 13.56605 120.56519 30866 ft 423 kts 208°
2026-04-25 07:42 13.53988 120.55224 30868 ft 415 kts 207°
2026-04-25 07:42 13.48765 120.52756 30864 ft 416 kts 206°
2026-04-25 07:43 13.43497 120.50272 30860 ft 416 kts 207°
2026-04-25 07:43 13.38248 120.47764 30859 ft 416 kts 207°
2026-04-25 07:44 13.33003 120.45243 30859 ft 416 kts 207°
2026-04-25 07:44 13.27755 120.42719 30859 ft 416 kts 207°
2026-04-25 07:45 13.22546 120.40215 30859 ft 416 kts 207°
2026-04-25 07:45 13.17301 120.37697 30856 ft 416 kts 207°
2026-04-25 07:46 13.12055 120.35180 30856 ft 416 kts 207°
2026-04-25 07:46 13.06815 120.32667 30856 ft 416 kts 207°
2026-04-25 07:47 13.01572 120.30153 30856 ft 416 kts 207°
2026-04-25 07:47 12.96359 120.27655 30852 ft 416 kts 207°
2026-04-25 07:48 12.91112 120.25141 30856 ft 416 kts 207°
2026-04-25 07:48 12.85863 120.22629 30856 ft 416 kts 207°
2026-04-25 07:49 12.80610 120.20116 30857 ft 416 kts 207°
2026-04-25 07:49 12.75360 120.17605 30856 ft 417 kts 207°
2026-04-25 07:50 12.70142 120.15110 30856 ft 417 kts 207°
2026-04-25 07:50 12.64898 120.12605 30856 ft 417 kts 207°
2026-04-25 07:51 12.59633 120.10090 30856 ft 417 kts 207°
2026-04-25 07:51 12.54371 120.07578 30856 ft 417 kts 207°
2026-04-25 07:52 12.49109 120.05067 30856 ft 417 kts 207°
2026-04-25 07:52 12.43883 120.02574 30856 ft 417 kts 207°
2026-04-25 07:53 12.38624 120.00067 30856 ft 417 kts 207°
2026-04-25 07:53 12.33362 119.97559 30856 ft 417 kts 207°
2026-04-25 07:54 12.28097 119.95051 30856 ft 417 kts 207°
2026-04-25 07:54 12.22842 119.92549 30857 ft 417 kts 207°
2026-04-25 07:55 12.17615 119.90061 30856 ft 417 kts 207°
2026-04-25 07:55 12.12346 119.87555 30856 ft 417 kts 207°
2026-04-25 07:56 12.07087 119.85054 30853 ft 417 kts 206°
2026-04-25 07:56 12.01818 119.82550 30857 ft 417 kts 206°
2026-04-25 07:57 11.96584 119.80064 30856 ft 418 kts 206°
2026-04-25 07:57 11.91314 119.77561 30856 ft 418 kts 206°
2026-04-25 07:58 11.86039 119.75057 30856 ft 418 kts 206°
2026-04-25 07:58 11.80770 119.72557 30856 ft 418 kts 206°
2026-04-25 07:59 11.75533 119.70073 30857 ft 418 kts 206°
2026-04-25 07:59 11.70247 119.67569 30856 ft 419 kts 206°
2026-04-25 08:00 11.64953 119.65104 30860 ft 419 kts 206°
2026-04-25 08:00 11.59647 119.62641 30858 ft 419 kts 206°
2026-04-25 08:01 11.54377 119.60196 30856 ft 419 kts 206°
2026-04-25 08:01 11.49073 119.57736 30856 ft 419 kts 206°
2026-04-25 08:02 11.43767 119.55275 30857 ft 419 kts 206°
2026-04-25 08:02 11.39353 119.53229 30855 ft 419 kts 206°
2026-04-25 08:03 11.33146 119.50353 30857 ft 419 kts 206°
2026-04-25 08:03 11.27838 119.47894 30416 ft 427 kts 206°
2026-04-25 08:04 11.25567 119.46842 30071 ft 426 kts 206°
2026-04-25 08:04 11.22876 119.45597 29545 ft 424 kts 206°
2026-04-25 08:04 11.20195 119.44356 29029 ft 421 kts 206°
2026-04-25 08:04 11.18430 119.43539 28711 ft 419 kts 206°
2026-04-25 08:05 11.14896 119.41904 28037 ft 415 kts 205°
2026-04-25 08:05 11.12281 119.40694 27577 ft 412 kts 206°
2026-04-25 08:05 11.09706 119.39503 27090 ft 410 kts 206°
2026-04-25 08:05 11.07124 119.38309 26627 ft 408 kts 205°
2026-04-25 08:06 11.04543 119.37116 26125 ft 406 kts 206°
2026-04-25 08:06 11.02017 119.35949 25647 ft 405 kts 205°
2026-04-25 08:06 10.99455 119.34764 25173 ft 403 kts 205°
2026-04-25 08:06 10.96911 119.33588 24695 ft 402 kts 205°
2026-04-25 08:07 10.94412 119.32434 24213 ft 401 kts 205°
2026-04-25 08:07 10.92732 119.31658 23896 ft 401 kts 205°
2026-04-25 08:07 10.90108 119.30447 23403 ft 400 kts 205°
2026-04-25 08:07 10.87668 119.29320 22875 ft 398 kts 204°
2026-04-25 08:08 10.85152 119.28159 22398 ft 396 kts 204°
2026-04-25 08:08 10.82695 119.27024 21930 ft 393 kts 204°
2026-04-25 08:08 10.80208 119.25877 21453 ft 391 kts 204°
2026-04-25 08:08 10.77737 119.24736 20985 ft 389 kts 204°
2026-04-25 08:09 10.74447 119.23219 20356 ft 387 kts 204°
2026-04-25 08:09 10.72827 119.22472 20046 ft 386 kts 204°
2026-04-25 08:09 10.70393 119.21350 19580 ft 385 kts 204°
2026-04-25 08:09 10.67957 119.20227 19105 ft 384 kts 204°
2026-04-25 08:10 10.64736 119.18742 18494 ft 382 kts 204°
2026-04-25 08:10 10.63102 119.17989 18176 ft 382 kts 204°
2026-04-25 08:10 10.59909 119.16518 17504 ft 380 kts 204°
2026-04-25 08:10 10.58331 119.15791 17190 ft 378 kts 204°
2026-04-25 08:11 10.55940 119.14689 16727 ft 375 kts 204°
2026-04-25 08:11 10.52777 119.13232 16104 ft 371 kts 204°
2026-04-25 08:11 10.50430 119.12151 15644 ft 369 kts 203°
2026-04-25 08:11 10.48122 119.11089 15163 ft 367 kts 203°
2026-04-25 08:12 10.45814 119.10027 14704 ft 364 kts 203°
2026-04-25 08:12 10.43512 119.08968 14235 ft 360 kts 204°
2026-04-25 08:12 10.41239 119.07922 13807 ft 357 kts 203°
2026-04-25 08:12 10.38989 119.06886 13312 ft 354 kts 204°
2026-04-25 08:13 10.36759 119.05859 12853 ft 350 kts 203°
2026-04-25 08:13 10.34594 119.04746 12371 ft 349 kts 211°
2026-04-25 08:13 10.32588 119.03355 11881 ft 348 kts 215°
2026-04-25 08:14 10.28786 119.00489 11108 ft 339 kts 214°
2026-04-25 08:14 10.26930 118.99085 10976 ft 326 kts 214°
2026-04-25 08:14 10.25713 118.98166 10919 ft 316 kts 215°
2026-04-25 08:14 10.23983 118.96863 10788 ft 305 kts 214°
2026-04-25 08:15 10.21756 118.95193 10470 ft 299 kts 215°
2026-04-25 08:15 10.20074 118.93932 10104 ft 301 kts 215°
2026-04-25 08:15 10.18405 118.92681 9758 ft 300 kts 214°
2026-04-25 08:15 10.17279 118.91837 9506 ft 299 kts 214°
2026-04-25 08:16 10.15595 118.90601 9183 ft 298 kts 211°
2026-04-25 08:16 10.13077 118.89673 8720 ft 289 kts 181°
2026-04-25 08:16 10.11737 118.89762 8499 ft 284 kts 167°
2026-04-25 08:16 10.09268 118.90418 8206 ft 271 kts 161°
2026-04-25 08:17 10.07477 118.90966 7758 ft 267 kts 161°
2026-04-25 08:17 10.05698 118.91516 7285 ft 267 kts 160°
2026-04-25 08:17 10.04521 118.91874 6997 ft 267 kts 161°
2026-04-25 08:17 10.02160 118.92586 6617 ft 266 kts 160°
2026-04-25 08:18 10.00383 118.93119 6284 ft 263 kts 161°
2026-04-25 08:18 9.98651 118.93632 6035 ft 262 kts 161°
2026-04-25 08:18 9.97473 118.93982 5758 ft 261 kts 161°
2026-04-25 08:18 9.95734 118.94502 5445 ft 262 kts 161°
2026-04-25 08:19 9.93988 118.95023 5169 ft 260 kts 161°
2026-04-25 08:19 9.92284 118.95531 4820 ft 258 kts 161°
2026-04-25 08:19 9.90554 118.96047 4582 ft 260 kts 161°
2026-04-25 08:19 9.88814 118.96566 4175 ft 260 kts 161°
2026-04-25 08:20 9.87073 118.97085 4015 ft 260 kts 161°
2026-04-25 08:20 9.85361 118.97593 3679 ft 255 kts 160°
2026-04-25 08:20 9.83133 118.98256 3307 ft 246 kts 160°
2026-04-25 08:20 9.82005 118.98526 3231 ft 247 kts 168°
2026-04-25 08:21 9.80279 118.98507 3095 ft 248 kts 183°
2026-04-25 08:21 9.78636 118.98251 2981 ft 238 kts 186°
2026-04-25 08:21 9.77030 118.97962 2756 ft 232 kts 187°
2026-04-25 08:21 9.75488 118.97581 2554 ft 226 kts 199°
2026-04-25 08:22 9.74324 118.96601 2479 ft 212 kts 234°
2026-04-25 08:22 9.73749 118.95326 2473 ft 187 kts 253°
2026-04-25 08:22 9.73486 118.93719 2466 ft 162 kts 268°
2026-04-25 08:22 9.73507 118.92642 2476 ft 147 kts 271°
2026-04-25 08:23 9.73551 118.91615 2482 ft 147 kts 273°
2026-04-25 08:23 9.73583 118.90916 2471 ft 147 kts 272°
2026-04-25 08:23 9.73623 118.89887 2433 ft 148 kts 272°
2026-04-25 08:23 9.73655 118.88836 2252 ft 149 kts 272°
2026-04-25 08:24 9.73699 118.87780 2060 ft 151 kts 272°
2026-04-25 08:24 9.73746 118.86716 1870 ft 152 kts 272°
2026-04-25 08:24 9.73793 118.85650 1665 ft 152 kts 273°
2026-04-25 08:24 9.73853 118.84232 1390 ft 151 kts 272°
2026-04-25 08:25 9.73885 118.83517 1275 ft 150 kts 272°
2026-04-25 08:25 9.73930 118.82461 1080 ft 150 kts 272°
2026-04-25 08:25 9.73975 118.81415 904 ft 151 kts 275°
2026-04-25 08:25 9.74009 118.80352 671 ft 150 kts 272°
2026-04-25 08:26 9.74032 118.79299 484 ft 149 kts 274°
2026-04-25 08:26 9.74120 118.78250 315 ft 150 kts 274°
2026-04-25 08:26 9.74157 118.77196 103 ft 150 kts 269°
2026-04-25 08:26 9.74196 118.76191 51 ft 122 kts 272°
2026-04-25 08:27 9.74221 118.75624 62 ft 39 kts 272°
2026-04-25 08:27 9.74236 118.75350 75 ft 30 kts 277°
2026-04-25 08:27 9.74303 118.75254 83 ft 13 kts 354°
2026-04-25 08:27 9.74382 118.75237 85 ft 11 kts 315°
2026-04-25 08:28 9.74413 118.75168 84 ft 12 kts 271°
2026-04-25 08:28 9.74425 118.75081 83 ft 10 kts 302°
2026-04-25 08:28 9.74491 118.75065 85 ft 9 kts
2026-04-25 08:28 9.74495 118.75065 85 ft 0 kts